[[{"header":{"parameterUnit":"m.s-1","parameterCategory":1,"la1":30.2991,"la2":30.254,"lo1":-89.0895,"lo2":-89.0444,"dy":0.0017,"dx":0.0017,"nx":28,"ny":28,"refTime":"2025-04-10T09:00:00:Z","depth":0,"parameterNumber":2,"parameterNumberName":"U-component_of_WINDS"},"data":[0,0,0,0,0,0,0,0,0,0,0,0,0,0,0,0,0,0,0,0,0,0,0,0,0,0,0,0,0,0,0,0,0,0,0,0,0,0,0,0,0,0,0,0,0,0,0,0,0,0,0,0,0,0,0,0,0,0,2.7071,2.7072,0,2.7128,2.7129,2.7129,2.7089,2.7088,2.7086,2.7084,2.7141,2.7144,2.7147,0,0,0,0,0,0,0,0,0,0,0,0,0,2.693,2.6932,2.7071,2.7072,2.7073,2.7128,2.7129,2.7129,2.709,2.7088,2.7085,2.7083,2.714,2.7144,2.7147,0,0,0,0,0,0,0,0,0,0,0,0,0,2.6989,2.6933,2.7071,2.706,2.7059,2.7128,2.7129,2.713,2.709,2.7087,2.7085,2.7082,2.7139,2.7143,2.7148,2.7231,0,0,2.7162,2.7165,0,0,0,0,0,0,0,0,2.6986,2.6994,2.7061,2.7061,2.706,2.7099,2.7099,2.7163,2.7091,2.7078,2.7084,2.7081,2.7129,2.7134,2.7151,2.7233,2.7236,2.7163,2.7166,2.7168,2.7169,0,0,0,0,0,0,0,2.6982,2.6992,2.7094,2.7062,2.7061,2.7052,2.7057,2.7111,2.7118,2.7079,2.7076,2.7084,2.7128,2.7146,2.7152,2.7236,2.7163,2.7167,2.717,2.7172,2.7391,2.7394,0,0,0,0,0,0,2.6979,2.6989,2.7092,2.7095,2.7016,2.7057,2.7063,2.7089,2.7117,2.7119,2.7086,2.7082,2.714,2.7146,2.7154,2.7253,2.7168,2.7172,2.7175,2.7388,2.7392,2.7395,0,0,0,0,0,0,2.6976,2.6988,2.709,2.7041,2.7053,2.7062,2.7092,2.7092,2.711,2.7122,2.7123,2.7103,2.7138,2.7147,2.7212,2.7255,2.7174,2.7179,2.7385,2.739,2.7394,2.7453,0,0,0,0,0,0,2.6972,2.6987,2.7019,2.7042,2.7056,2.7147,2.7094,2.7095,2.7118,2.7113,2.7139,2.714,2.7136,2.7205,2.7217,2.726,2.7182,2.7381,2.7387,2.7392,2.7447,2.7459,2.7469,0,0,0,0,0,2.6967,2.7032,2.702,2.7033,2.7095,2.715,2.7158,2.7152,2.7122,2.7153,2.7162,2.714,2.7248,2.7212,2.7225,2.727,2.7378,2.7385,2.7392,2.7442,2.7457,2.7469,0,0,0,0,0,0,2.7013,2.7035,2.7022,2.7097,2.7122,2.7143,2.7183,2.7167,2.7201,2.7194,2.7186,2.7192,2.7261,2.7272,2.7231,2.7352,2.7309,2.7318,2.7343,2.7356,2.7367,2.7363,2.7186,0,0,0,0,0,2.7032,2.7074,2.7091,2.7156,2.7169,2.7174,2.7197,2.7191,2.7216,2.7226,2.7239,2.7265,2.7305,2.7331,2.7368,2.7449,2.7454,2.7486,2.7497,2.7506,2.7514,2.7559,2.7574,2.7417,2.7417,2.7417,0,0,2.7071,2.7089,2.7116,2.7166,2.7184,2.7229,2.7183,2.7231,2.7264,2.7233,2.7296,2.7307,2.7335,2.7408,2.7441,2.742,2.7559,2.7514,2.7521,2.7525,2.7568,2.7582,2.7596,2.7422,2.7421,2.742,0,0,2.7166,2.7183,2.7239,2.7259,2.7288,2.7291,2.7305,2.7329,2.7335,2.7398,2.7377,2.7416,2.7484,2.7505,2.7525,2.763,2.7611,2.7642,2.7699,2.7743,2.7755,2.7766,2.7805,2.7818,2.7651,2.7651,2.7651,0,2.7211,2.7277,2.727,2.7321,2.7344,2.732,2.7377,2.7397,2.7436,2.7453,2.7428,2.7515,2.7532,2.7611,2.7637,2.7653,2.7669,2.7639,2.7754,2.7765,2.7775,2.7812,2.7826,2.7655,2.7654,2.7654,2.7653,0,2.7332,2.7378,2.742,2.746,2.7488,2.7542,2.7544,2.7573,2.7565,2.7571,2.7636,2.7656,2.7697,2.7716,2.7708,2.7794,2.778,2.7755,2.7711,2.7794,2.7828,2.7842,2.766,2.7659,2.7657,2.7657,0,0,2.7455,2.7493,2.7508,2.7527,2.7558,2.7594,2.7647,2.7688,2.7714,2.7743,2.7788,2.7848,2.7825,2.7848,2.7842,2.788,2.7964,2.7851,2.7851,2.7872,2.8062,2.8081,2.8097,2.7952,2.7955,2.7957,2.806,0,2.7552,2.7646,2.7642,2.773,2.7773,2.7751,2.7798,2.7822,2.783,2.7868,2.7876,2.7919,2.7885,2.7899,2.7936,2.7946,2.8002,2.7938,2.7994,2.7996,2.7988,2.8115,2.8135,2.8232,2.8073,2.8076,2.8077,0,2.7677,2.7712,2.7804,2.783,2.7848,2.789,2.7929,2.7965,2.7993,2.7996,2.8022,2.8011,2.8066,2.802,2.8096,2.8053,2.8076,2.8084,2.8088,2.8093,2.8042,2.8124,2.8262,2.8277,2.8098,2.8096,2.8095,0,2.776,2.7829,2.7893,2.7909,2.7941,2.7972,2.7987,2.8012,2.8038,2.8071,2.8088,2.8128,2.815,2.8181,2.8181,2.8148,2.8258,2.8212,2.8263,2.8263,2.8287,2.8285,2.8431,2.8301,2.8301,2.83,2.83,0,2.7869,2.7926,2.7931,2.797,2.8034,2.803,2.8094,2.8105,2.8128,2.817,2.8154,2.8193,2.8191,2.8231,2.8231,2.8295,2.8305,2.8309,2.8308,2.8311,2.831,2.8325,2.8319,2.8304,2.8303,2.8302,2.8302,0,2.7971,2.7976,2.8045,2.8071,2.8079,2.8125,2.8147,2.8185,2.8191,2.8245,2.8257,2.8267,2.8314,2.8317,2.8371,2.8371,2.8449,2.8441,2.844,2.8439,2.8489,2.8484,2.865,2.8671,2.8527,2.8528,2.8529,0,2.804,2.8084,2.8115,2.8142,2.8159,2.8203,2.8229,2.8228,2.8256,2.8292,2.8326,2.8372,2.8408,2.8484,2.8496,2.8538,2.8531,2.8586,2.8537,2.8539,2.8533,2.853,2.8535,2.8596,2.8597,2.8598,2.8599,0,2.8163,2.8164,2.8203,2.8244,2.8277,2.8309,2.8339,2.8362,2.8364,2.8397,2.8445,2.8474,2.853,2.8575,2.8616,2.8631,2.8617,2.8615,2.8629,2.8632,2.863,2.8633,2.8466,2.8611,2.861,2.8609,2.8608,2.8608,2.8251,2.829,2.8318,2.8363,2.8385,2.8414,2.8452,2.8464,2.8504,2.855,2.8547,2.86,2.8628,2.8682,2.8701,2.8743,2.8725,2.8744,2.875,2.8755,2.876,2.8623,2.8751,2.875,2.875,2.875,2.8749,0,2.8373,2.8391,2.8432,2.8476,2.8511,2.8495,2.8527,2.8558,2.8606,2.8634,2.8671,2.8727,2.8772,2.8788,2.8832,2.8863,2.8857,2.8875,2.8872,2.8876,2.8774,2.8758,2.8879,2.8879,2.8878,2.8878,2.8878,2.8878,2.8441,2.8506,2.8511,2.8588,2.8604,2.8658,2.8678,2.8705,2.8727,2.8791,2.8829,2.8839,2.8863,2.8909,2.895,2.8953,2.8971,2.8991,2.8992,2.8896,2.8883,2.8871,2.8856,2.8995,2.8995,2.9091,2.9092,2.9092]},{"header":{"parameterUnit":"m.s-1","parameterCategory":1,"la1":30.2991,"la2":30.254,"lo1":-89.0895,"lo2":-89.0444,"dy":0.0017,"dx":0.0017,"nx":28,"ny":28,"refTime":"2025-04-10T09:00:00:Z","depth":0,"parameterNumber":3,"parameterNumberName":"V-component_of_WINDS"},"data":[0,0,0,0,0,0,0,0,0,0,0,0,0,0,0,0,0,0,0,0,0,0,0,0,0,0,0,0,0,0,0,0,0,0,0,0,0,0,0,0,0,0,0,0,0,0,0,0,0,0,0,0,0,0,0,0,0,0,-4.7991,-4.7993,0,-4.8174,-4.8176,-4.8178,-4.8159,-4.8157,-4.8154,-4.8151,-4.8339,-4.8346,-4.8354,0,0,0,0,0,0,0,0,0,0,0,0,0,-4.7626,-4.7633,-4.799,-4.7993,-4.7995,-4.8173,-4.8176,-4.8178,-4.816,-4.8156,-4.8153,-4.815,-4.8336,-4.8345,-4.8354,0,0,0,0,0,0,0,0,0,0,0,0,0,-4.7794,-4.7635,-4.799,-4.8007,-4.8011,-4.8173,-4.8176,-4.8179,-4.8161,-4.8156,-4.8152,-4.8148,-4.8333,-4.8344,-4.8356,-4.8512,0,0,-4.8391,-4.8396,0,0,0,0,0,0,0,0,-4.7785,-4.7808,-4.8003,-4.8006,-4.8011,-4.8139,-4.8116,-4.8291,-4.8162,-4.8104,-4.8151,-4.8146,-4.8276,-4.8292,-4.8336,-4.8521,-4.8529,-4.8392,-4.8399,-4.8404,-4.8407,0,0,0,0,0,0,0,-4.7773,-4.78,-4.8063,-4.8005,-4.801,-4.8006,-4.8026,-4.8149,-4.8212,-4.8108,-4.8108,-4.813,-4.8277,-4.8325,-4.834,-4.8532,-4.8392,-4.8402,-4.8409,-4.8413,-4.8858,-4.8863,0,0,0,0,0,0,-4.7757,-4.779,-4.8057,-4.8068,-4.7885,-4.8016,-4.8038,-4.8102,-4.821,-4.8223,-4.8133,-4.8128,-4.8307,-4.8326,-4.8346,-4.854,-4.8404,-4.8414,-4.8421,-4.8854,-4.886,-4.8865,0,0,0,0,0,0,-4.775,-4.7781,-4.805,-4.7929,-4.7963,-4.8027,-4.81,-4.8108,-4.8156,-4.8229,-4.824,-4.817,-4.8304,-4.833,-4.8472,-4.8546,-4.842,-4.843,-4.8848,-4.8855,-4.8862,-4.8926,0,0,0,0,0,0,-4.7739,-4.7779,-4.7838,-4.7931,-4.797,-4.8172,-4.8104,-4.8115,-4.8175,-4.8171,-4.8266,-4.8278,-4.8303,-4.8455,-4.8483,-4.8559,-4.8439,-4.8841,-4.8851,-4.886,-4.8917,-4.8934,-4.8949,0,0,0,0,0,-4.7726,-4.7848,-4.7842,-4.7874,-4.8046,-4.8176,-4.8199,-4.8225,-4.8181,-4.8243,-4.829,-4.8275,-4.8532,-4.847,-4.8501,-4.8582,-4.8837,-4.8848,-4.8859,-4.891,-4.8931,-4.8948,0,0,0,0,0,0,-4.7763,-4.7861,-4.7854,-4.801,-4.8085,-4.8173,-4.8251,-4.8246,-4.8335,-4.8327,-4.8355,-4.8377,-4.8521,-4.8565,-4.8493,-4.8741,-4.8679,-4.8697,-4.8707,-4.8727,-4.8743,-4.873,-4.8449,0,0,0,0,0,-4.7789,-4.7887,-4.7967,-4.8096,-4.8135,-4.8186,-4.8244,-4.8258,-4.8337,-4.8369,-4.8426,-4.8504,-4.8602,-4.8667,-4.8761,-4.8923,-4.8945,-4.8994,-4.901,-4.9022,-4.9038,-4.913,-4.9153,-4.8901,-4.8901,-4.8901,0,0,-4.7844,-4.791,-4.797,-4.8106,-4.8165,-4.8267,-4.8213,-4.8322,-4.8398,-4.8385,-4.8524,-4.8568,-4.8657,-4.881,-4.888,-4.8852,-4.9112,-4.9036,-4.9046,-4.9055,-4.9144,-4.9167,-4.9189,-4.8909,-4.8907,-4.8906,0,0,-4.7998,-4.8056,-4.8172,-4.8233,-4.8324,-4.8358,-4.8386,-4.8476,-4.8505,-4.8644,-4.8637,-4.8728,-4.8896,-4.8961,-4.9015,-4.9194,-4.9185,-4.9224,-4.9307,-4.9396,-4.9416,-4.9434,-4.95,-4.9524,-4.9239,-4.9239,-4.9239,0,-4.8055,-4.8207,-4.8232,-4.8343,-4.8404,-4.8397,-4.8515,-4.8573,-4.8691,-4.8734,-4.8699,-4.8912,-4.8971,-4.9141,-4.9184,-4.9228,-4.9262,-4.9214,-4.9411,-4.9429,-4.9446,-4.951,-4.9535,-4.9244,-4.9243,-4.9243,-4.9242,0,-4.8275,-4.838,-4.8463,-4.8578,-4.8648,-4.8761,-4.8804,-4.8872,-4.888,-4.8918,-4.9061,-4.9131,-4.9241,-4.9281,-4.9289,-4.9453,-4.9433,-4.9404,-4.9343,-4.9474,-4.9535,-4.9559,-4.925,-4.9248,-4.9247,-4.9246,0,0,-4.8457,-4.8584,-4.8615,-4.8668,-4.8769,-4.8851,-4.8965,-4.9073,-4.9132,-4.9213,-4.9311,-4.9455,-4.943,-4.9492,-4.9507,-4.9585,-4.9726,-4.9548,-4.955,-4.9581,-4.9914,-4.9936,-4.9964,-4.9719,-4.9724,-4.9727,-4.9907,0,-4.8622,-4.8825,-4.8851,-4.9031,-4.9131,-4.9126,-4.9225,-4.9299,-4.9337,-4.9427,-4.9469,-4.9572,-4.953,-4.9568,-4.9644,-4.9692,-4.9793,-4.9679,-4.9813,-4.9817,-4.9794,-4.9995,-5.0019,-5.0186,-4.9931,-4.9935,-4.9938,0,-4.8842,-4.8931,-4.9122,-4.9211,-4.9254,-4.9343,-4.9445,-4.9531,-4.9614,-4.9637,-4.9707,-4.9713,-4.9832,-4.9765,-4.9931,-4.9853,-4.9908,-4.994,-4.9948,-4.9963,-4.9887,-5.0019,-5.0239,-5.0265,-4.9975,-4.9972,-4.9969,0,-4.896,-4.9127,-4.9263,-4.9308,-4.9415,-4.9478,-4.9526,-4.9605,-4.9669,-4.9758,-4.98,-4.9901,-4.9958,-5.0036,-5.007,-5.0017,-5.0235,-5.017,-5.0259,-5.0259,-5.0307,-5.0305,-5.0542,-5.0339,-5.0338,-5.0338,-5.0337,0,-4.9144,-4.9261,-4.9318,-4.9402,-4.9534,-4.9562,-4.9692,-4.9737,-4.9808,-4.9902,-4.9902,-4.999,-5.0028,-5.0122,-5.0149,-5.0284,-5.0308,-5.0331,-5.0338,-5.0333,-5.0331,-5.0372,-5.0363,-5.0344,-5.0343,-5.0341,-5.034,0,-4.9299,-4.9341,-4.949,-4.9579,-4.9604,-4.9697,-4.9774,-4.9856,-4.9893,-5.0012,-5.0041,-5.0101,-5.0212,-5.0252,-5.0387,-5.0405,-5.0563,-5.0558,-5.0535,-5.0537,-5.0626,-5.0618,-5.0901,-5.0941,-5.0708,-5.071,-5.0712,0,-4.9414,-4.9505,-4.9604,-4.9667,-4.9717,-4.9818,-4.9884,-4.9915,-4.9984,-5.0086,-5.0157,-5.0267,-5.0358,-5.0535,-5.0591,-5.0694,-5.0694,-5.0786,-5.071,-5.0703,-5.0699,-5.0695,-5.0705,-5.0801,-5.0803,-5.0805,-5.0807,0,-4.9617,-4.9634,-4.9728,-4.9831,-4.9909,-4.9991,-5.0071,-5.0123,-5.0166,-5.0243,-5.0357,-5.0427,-5.0566,-5.0677,-5.0783,-5.0832,-5.0829,-5.083,-5.0857,-5.0855,-5.0839,-5.0852,-5.0577,-5.0824,-5.0822,-5.0821,-5.082,-5.0819,-4.9758,-4.9839,-4.9922,-5.0028,-5.0092,-5.0167,-5.0249,-5.0297,-5.0392,-5.0508,-5.0521,-5.0644,-5.0726,-5.0869,-5.0924,-5.1021,-5.0996,-5.1034,-5.1045,-5.1054,-5.1062,-5.0821,-5.104,-5.104,-5.1039,-5.1039,-5.1039,0,-4.9963,-5.0016,-5.0113,-5.0226,-5.0309,-5.0297,-5.0385,-5.0456,-5.0565,-5.0642,-5.0731,-5.0863,-5.0971,-5.1035,-5.1143,-5.1209,-5.121,-5.1237,-5.1234,-5.1246,-5.1077,-5.1044,-5.1235,-5.1235,-5.1235,-5.1234,-5.1234,-5.1234,-5.008,-5.0217,-5.0244,-5.0414,-5.0466,-5.0588,-5.0639,-5.0709,-5.0771,-5.0919,-5.1009,-5.105,-5.1123,-5.1236,-5.1335,-5.1351,-5.1392,-5.1422,-5.1436,-5.1278,-5.1258,-5.1238,-5.1208,-5.143,-5.143,-5.1598,-5.16,-5.1601]}]]